Weather History for KTAZ - December, 2012

Change the Weather History Date:

Sunday, December 30, 2012

  Actual Average (KSPI) Record (KSPI)
Temperature  
Mean Temperature 26 °F 27 °F  
Max Temperature 35 °F 35 °F 65 °F (1965)
Min Temperature 17 °F 20 °F -15 °F (1983)
Degree Days  
Heating Degree Days 39 38  
Month to date heating degree days 1036  
Since 1 July heating degree days 2104  
Cooling Degree Days 0 0  
Month to date cooling degree days 0  
Year to date cooling degree days 1122  
Moisture  
Dew Point 22 °F    
Average Humidity 76    
Maximum Humidity 93    
Minimum Humidity 65    
Precipitation  
Precipitation 0.00 in 0.07 in 0.76 in (1885)
Month to date precipitation 2.45  
Year to date precipitation 37.36  
Snow  
Snow 0.00 in 0.20 in 4.70 in (1973)
Month to date snowfall 5.4  
Since 1 July snowfall 6.0  
Snow Depth -    
Sea Level Pressure  
Sea Level Pressure 30.30 in    
Wind  
Wind Speed 9 mph (South)    
Max Wind Speed 16 mph    
Max Gust Speed 24 mph    
Visibility 9 miles    
Events      
T = Trace of Precipitation, MM = Missing Value Source: NWS Daily Summary

Daily Weather History Graph

Daily Weather History Graph

Search for Another Location

Airport or City:

Trip Planner

Search our weather history database for the weather conditions in past years. The results will help you decide how hot, cold, wet, or windy it might be!

Date:

Astronomy

Dec. 30, 2012 Rise Set
Actual Time 7:17 AM CST 4:42 PM CST
Civil Twilight 6:47 AM CST 5:13 PM CST
Nautical Twilight 6:13 AM CST 5:46 PM CST
Astronomical Twilight 5:40 AM CST 6:19 PM CST
Moon 7:13 PM CST (12/30) 8:27 AM CST (12/30)
Length of Visible Light 10h 25m
Length of Day
9h 25m
Waning Gibbous, 95% of the Moon is Illuminated
Dec 30
Waning Gibbous
Jan 4
Last Quarter
Jan 11
New
Jan 18
First Quarter
Jan 26
Full

Hourly Weather History & Observations

Time (CST) Temp. Windchill Dew Point Humidity Pressure Visibility Wind Dir Wind Speed Gust Speed Precip Events Conditions
12:15 AM 19.4 °F 10.4 °F 15.8 °F 86% 30.30 in 10.0 mi WSW 6.9 mph - N/A   Clear
12:35 AM 19.4 °F 12.8 °F 15.8 °F 86% 30.30 in 10.0 mi WSW 4.6 mph - N/A   Clear
12:55 AM 17.6 °F 10.7 °F 15.8 °F 93% 30.30 in 7.0 mi SW 4.6 mph - N/A   Clear
7:35 AM 17.6 °F 9.3 °F 15.8 °F 93% 30.38 in 5.0 mi SSW 5.8 mph - N/A   Clear
7:55 AM 19.4 °F 12.8 °F 15.8 °F 86% 30.37 in 7.0 mi South 4.6 mph - N/A   Clear
8:15 AM 21.2 °F 14.9 °F 17.6 °F 86% 30.37 in 5.0 mi SSW 4.6 mph - N/A   Clear
8:35 AM 21.2 °F 13.6 °F 17.6 °F 86% 30.37 in 7.0 mi SSW 5.8 mph - N/A   Clear
8:55 AM 24.8 °F 16.9 °F 17.6 °F 74% 30.38 in 7.0 mi SSW 6.9 mph - N/A   Clear
9:15 AM 24.8 °F 19.1 °F 19.4 °F 80% 30.38 in 7.0 mi South 4.6 mph - N/A   Clear
9:35 AM 26.6 °F 20.0 °F 19.4 °F 74% 30.39 in 7.0 mi South 5.8 mph - N/A   Clear
9:55 AM 28.4 °F 22.2 °F 21.2 °F 74% 30.38 in 7.0 mi SSW 5.8 mph - N/A   Clear
10:15 AM 28.4 °F 21.2 °F 21.2 °F 74% 30.39 in 7.0 mi SSW 6.9 mph - N/A   Clear
10:35 AM 30.2 °F 22.6 °F 21.2 °F 69% 30.38 in 7.0 mi South 8.1 mph - N/A   Clear
10:55 AM 32.0 °F 24.8 °F 23.0 °F 69% 30.38 in 10.0 mi South 8.1 mph - N/A   Clear
11:15 AM 33.8 °F 26.4 °F 23.0 °F 65% 30.37 in 10.0 mi South 9.2 mph - N/A   Clear
11:35 AM 33.8 °F 25.3 °F 23.0 °F 65% 30.37 in 10.0 mi South 11.5 mph - N/A   Clear
11:55 AM 35.6 °F 29.2 °F 24.8 °F 65% 30.35 in 10.0 mi South 8.1 mph - N/A   Clear
12:15 PM 35.6 °F 28.6 °F 24.8 °F 65% 30.34 in 10.0 mi South 9.2 mph - N/A   Clear
12:35 PM 35.6 °F 28.0 °F 24.8 °F 65% 30.34 in 10.0 mi SSW 10.4 mph - N/A   Clear
12:55 PM 35.6 °F 28.0 °F 24.8 °F 65% 30.33 in 10.0 mi SSW 10.4 mph - N/A   Clear
1:15 PM 35.6 °F 29.2 °F 24.8 °F 65% 30.31 in 10.0 mi South 8.1 mph - N/A   Clear
1:35 PM 35.6 °F 28.6 °F 24.8 °F 65% 30.31 in 10.0 mi South 9.2 mph - N/A   Clear
1:55 PM 33.8 °F 25.3 °F 24.8 °F 70% 30.30 in 10.0 mi South 11.5 mph - N/A   Clear
2:15 PM 35.6 °F 27.1 °F 26.6 °F 70% 30.30 in 10.0 mi South 12.7 mph - N/A   Clear
2:35 PM 33.8 °F 25.8 °F 24.8 °F 70% 30.30 in 10.0 mi South 10.4 mph - N/A   Clear
2:55 PM 33.8 °F 25.3 °F 24.8 °F 70% 30.30 in 10.0 mi South 11.5 mph - N/A   Clear
3:15 PM 33.8 °F 25.3 °F 24.8 °F 70% 30.30 in 10.0 mi South 11.5 mph - N/A   Clear
3:35 PM 30.2 °F 21.3 °F 24.8 °F 80% 30.30 in 10.0 mi South 10.4 mph - N/A   Clear
3:55 PM 30.2 °F 21.3 °F 23.0 °F 75% 30.31 in 10.0 mi South 10.4 mph - N/A   Clear
4:15 PM 28.4 °F 19.1 °F 23.0 °F 80% 30.30 in 10.0 mi South 10.4 mph - N/A   Clear
4:35 PM 28.4 °F 19.1 °F 23.0 °F 80% 30.29 in 10.0 mi South 10.4 mph - N/A   Clear
4:55 PM 28.4 °F 19.1 °F 21.2 °F 74% 30.29 in 10.0 mi South 10.4 mph - N/A   Clear
5:15 PM 28.4 °F 17.5 °F 23.0 °F 80% 30.28 in 10.0 mi South 13.8 mph - N/A   Clear
5:35 PM 28.4 °F 18.5 °F 23.0 °F 80% 30.28 in 10.0 mi South 11.5 mph - N/A   Clear
5:55 PM 28.4 °F 18.5 °F 23.0 °F 80% 30.28 in 10.0 mi South 11.5 mph - N/A   Clear
6:15 PM 28.4 °F 17.5 °F 21.2 °F 74% 30.29 in 10.0 mi South 13.8 mph - N/A   Clear
6:35 PM 28.4 °F 18.0 °F 23.0 °F 80% 30.28 in 10.0 mi South 12.7 mph - N/A   Clear
6:55 PM 28.4 °F 18.0 °F 21.2 °F 74% 30.27 in 10.0 mi South 12.7 mph - N/A   Clear
7:15 PM 28.4 °F 17.0 °F 21.2 °F 74% 30.25 in 10.0 mi South 15.0 mph - N/A   Clear
7:35 PM 28.4 °F 17.5 °F 21.2 °F 74% 30.25 in 10.0 mi South 13.8 mph - N/A   Clear
7:55 PM 28.4 °F 17.0 °F 21.2 °F 74% 30.25 in 10.0 mi South 15.0 mph - N/A   Clear
8:15 PM 28.4 °F 18.0 °F 23.0 °F 80% 30.23 in 10.0 mi South 12.7 mph 18.4 mph N/A   Clear
8:35 PM 28.4 °F 17.5 °F 23.0 °F 80% 30.24 in 10.0 mi South 13.8 mph - N/A   Clear
8:55 PM 28.4 °F 17.5 °F 23.0 °F 80% 30.23 in 10.0 mi South 13.8 mph - N/A   Clear
9:15 PM 26.6 °F 15.7 °F 23.0 °F 86% 30.23 in 10.0 mi South 12.7 mph - N/A   Clear
9:35 PM 26.6 °F 15.7 °F 23.0 °F 86% 30.22 in 10.0 mi South 12.7 mph - N/A   Clear
9:55 PM 28.4 °F 17.0 °F 23.0 °F 80% 30.21 in 10.0 mi South 15.0 mph - N/A   Clear
10:15 PM 28.4 °F 17.5 °F 23.0 °F 80% 30.20 in 10.0 mi South 13.8 mph 24.2 mph N/A   Clear
10:35 PM 28.4 °F 16.6 °F 23.0 °F 80% 30.19 in 10.0 mi South 16.1 mph 21.9 mph N/A   Clear
10:55 PM 28.4 °F 17.0 °F 23.0 °F 80% 30.21 in 10.0 mi South 15.0 mph 20.7 mph N/A   Clear
11:15 PM 28.4 °F 18.5 °F 23.0 °F 80% 30.20 in 10.0 mi South 11.5 mph - N/A   Clear
11:35 PM 28.4 °F 19.1 °F 23.0 °F 80% 30.20 in 10.0 mi South 10.4 mph - N/A   Clear
11:55 PM 28.4 °F 19.1 °F 23.0 °F 80% 30.18 in 10.0 mi South 10.4 mph - N/A   Clear